Location: Clarion
(42.7316°N, 93.7330°W)
Time: 09:44:55
(UTC+00:00)

CZ-4B R/B - Pass Details

Date: 22 April 2026
Orbit: 462 x 561 km, 97.8° (Epoch: 17 May)

Event Time Altitude Azimuth Distance (km) Brightness Sun altitude
Exits shadow 02:06:01 - 168° (SSE) 2,047 6.4 -11.3°
Reaches altitude 10° 02:06:49 10° 169° (SSE) 1,717 6.0 -11.4°
Maximum altitude 02:10:31 83° 257° (WSW) 529 3.7 -12.0°
Drops below altitude 10° 02:14:23 10° 346° (NNW) 1,791 7.1 -12.6°
Sets 02:16:33 0° 347° (NNW) 2,703 8.0 -13.0°
